[[{"header":{"parameterUnit":"m.s-1","parameterCategory":1,"la1":30.2991,"la2":30.254,"lo1":-89.0895,"lo2":-89.0444,"dy":0.0017,"dx":0.0017,"nx":28,"ny":28,"refTime":"2025-12-13T03:00:00:Z","depth":0,"parameterNumber":2,"parameterNumberName":"U-component_of_WINDS"},"data":[0,0,0,0,0,0,0,0,0,0,0,0,0,0,0,0,0,0,0,0,0,0,0,0,0,0,0,0,0,0,0,0,0,0,0,0,0,0,0,0,0,0,0,0,0,0,0,0,0,0,0,0,0,0,0,0,0,0,-1.7169,-1.717,0,-1.7222,-1.7223,-1.7223,-1.7207,-1.7206,-1.7205,-1.7204,-1.7259,-1.7261,-1.7264,0,0,0,0,0,0,0,0,0,0,0,0,0,-1.7056,-1.7058,-1.7169,-1.717,-1.717,-1.7222,-1.7223,-1.7223,-1.7207,-1.7206,-1.7204,-1.7203,-1.7258,-1.7261,-1.7264,0,0,0,0,0,0,0,0,0,0,0,0,0,-1.7106,-1.7059,-1.7169,-1.7168,-1.7169,-1.7222,-1.7223,-1.7223,-1.7207,-1.7206,-1.7204,-1.7202,-1.7257,-1.7261,-1.7264,-1.7321,0,0,-1.7276,-1.7277,0,0,0,0,0,0,0,0,-1.7104,-1.7111,-1.7168,-1.7168,-1.7169,-1.7206,-1.7203,-1.7256,-1.7208,-1.7193,-1.7204,-1.7202,-1.7243,-1.7247,-1.7261,-1.7324,-1.7326,-1.7276,-1.7278,-1.728,-1.7281,0,0,0,0,0,0,0,-1.71,-1.7108,-1.719,-1.7169,-1.7169,-1.7166,-1.7172,-1.7213,-1.7226,-1.7194,-1.7193,-1.7199,-1.7243,-1.7257,-1.7262,-1.7327,-1.7276,-1.7279,-1.7282,-1.7283,-1.744,-1.7442,0,0,0,0,0,0,-1.7096,-1.7105,-1.7188,-1.7191,-1.7132,-1.717,-1.7176,-1.7196,-1.7226,-1.7229,-1.7201,-1.7198,-1.7252,-1.7258,-1.7264,-1.7333,-1.728,-1.7283,-1.7286,-1.7438,-1.744,-1.7443,0,0,0,0,0,0,-1.7094,-1.7103,-1.7186,-1.7148,-1.7158,-1.7173,-1.7196,-1.7198,-1.7213,-1.7231,-1.7234,-1.7213,-1.7251,-1.7259,-1.7307,-1.7335,-1.7285,-1.7289,-1.7436,-1.7439,-1.7442,-1.7471,0,0,0,0,0,0,-1.709,-1.7103,-1.7124,-1.7149,-1.7161,-1.7228,-1.7198,-1.72,-1.7219,-1.7216,-1.7243,-1.7246,-1.725,-1.7302,-1.7311,-1.7339,-1.7292,-1.7433,-1.7437,-1.7441,-1.7468,-1.7475,-1.7481,0,0,0,0,0,-1.7086,-1.713,-1.7125,-1.7135,-1.7187,-1.7229,-1.7236,-1.7239,-1.7221,-1.7243,-1.7255,-1.7245,-1.7331,-1.7307,-1.7317,-1.7347,-1.7432,-1.7436,-1.744,-1.7465,-1.7473,-1.748,0,0,0,0,0,0,-1.7108,-1.7133,-1.7128,-1.7181,-1.7203,-1.7226,-1.7254,-1.7248,-1.7276,-1.7272,-1.7276,-1.7282,-1.7332,-1.7344,-1.7317,-1.7404,-1.7379,-1.7385,-1.7394,-1.7402,-1.7408,-1.7404,-1.7295,0,0,0,0,0,-1.7118,-1.715,-1.7171,-1.7216,-1.7227,-1.7239,-1.7257,-1.7258,-1.7281,-1.7291,-1.7306,-1.733,-1.7362,-1.7383,-1.7413,-1.747,-1.7476,-1.7496,-1.7502,-1.7507,-1.7513,-1.7545,-1.7554,-1.7457,-1.7457,-1.7457,0,0,-1.7141,-1.7159,-1.7179,-1.722,-1.7238,-1.7271,-1.7247,-1.7283,-1.7308,-1.7296,-1.7343,-1.7355,-1.7382,-1.7435,-1.7459,-1.7447,-1.7541,-1.7513,-1.7517,-1.7519,-1.755,-1.7559,-1.7567,-1.746,-1.7459,-1.7459,0,0,-1.7199,-1.7216,-1.7255,-1.7273,-1.73,-1.7308,-1.7317,-1.7342,-1.735,-1.7397,-1.739,-1.742,-1.7475,-1.7494,-1.7511,-1.7579,-1.7571,-1.7589,-1.7622,-1.7653,-1.7661,-1.7668,-1.7692,-1.7701,-1.7595,-1.7595,-1.7595,0,-1.7224,-1.7273,-1.7276,-1.7313,-1.7332,-1.7324,-1.7364,-1.7382,-1.7417,-1.7431,-1.7417,-1.7487,-1.7504,-1.7562,-1.7579,-1.7593,-1.7604,-1.7585,-1.766,-1.7666,-1.7673,-1.7696,-1.7705,-1.7597,-1.7596,-1.7596,-1.7596,0,-1.7303,-1.7337,-1.7366,-1.74,-1.7423,-1.7461,-1.7471,-1.7494,-1.7493,-1.7503,-1.7551,-1.7572,-1.7607,-1.7621,-1.762,-1.7679,-1.7671,-1.7658,-1.7633,-1.7684,-1.7706,-1.7715,-1.7599,-1.7599,-1.7598,-1.7598,0,0,-1.7374,-1.7411,-1.7421,-1.7437,-1.7467,-1.7494,-1.7533,-1.7567,-1.7587,-1.7612,-1.7645,-1.7693,-1.7682,-1.7701,-1.7703,-1.7731,-1.7784,-1.7715,-1.7716,-1.7727,-1.7851,-1.7859,-1.787,-1.7779,-1.7781,-1.7783,-1.7848,0,-1.7434,-1.7502,-1.7507,-1.7568,-1.7601,-1.7594,-1.7628,-1.7651,-1.7661,-1.7691,-1.7703,-1.7737,-1.7719,-1.7731,-1.7758,-1.7772,-1.7809,-1.7767,-1.781,-1.7812,-1.7803,-1.7881,-1.789,-1.7951,-1.7857,-1.7858,-1.7859,0,-1.7514,-1.7541,-1.7606,-1.7632,-1.7646,-1.7677,-1.7709,-1.7737,-1.7763,-1.7769,-1.7792,-1.7791,-1.7832,-1.7806,-1.7862,-1.7834,-1.7853,-1.7862,-1.7865,-1.7868,-1.7838,-1.7886,-1.7971,-1.798,-1.7873,-1.7872,-1.7871,0,-1.7559,-1.7613,-1.7659,-1.7673,-1.7705,-1.7726,-1.7741,-1.7765,-1.7786,-1.7815,-1.7828,-1.7862,-1.788,-1.7906,-1.7914,-1.7894,-1.7971,-1.7945,-1.7977,-1.7977,-1.7993,-1.7992,-1.8081,-1.8006,-1.8006,-1.8006,-1.8005,0,-1.7626,-1.7665,-1.768,-1.7708,-1.7753,-1.7759,-1.7803,-1.7816,-1.7839,-1.787,-1.7867,-1.7896,-1.7906,-1.7937,-1.7944,-1.7991,-1.7999,-1.8005,-1.8006,-1.8005,-1.8004,-1.8016,-1.8012,-1.8008,-1.8008,-1.8007,-1.8007,0,-1.7683,-1.7695,-1.7744,-1.7771,-1.7778,-1.781,-1.7833,-1.7861,-1.7872,-1.7911,-1.7921,-1.7938,-1.7975,-1.7986,-1.8031,-1.8036,-1.809,-1.8088,-1.8081,-1.8081,-1.8112,-1.8109,-1.8212,-1.8226,-1.8142,-1.8143,-1.8144,0,-1.7725,-1.7755,-1.7785,-1.7806,-1.7821,-1.7855,-1.7876,-1.7884,-1.7906,-1.7939,-1.7963,-1.8,-1.8029,-1.8089,-1.8106,-1.814,-1.8139,-1.8172,-1.8144,-1.8142,-1.8139,-1.8137,-1.814,-1.8177,-1.8178,-1.8179,-1.818,0,-1.7797,-1.7802,-1.7832,-1.7865,-1.7891,-1.7917,-1.7943,-1.796,-1.7972,-1.7997,-1.8035,-1.8058,-1.8104,-1.8141,-1.8176,-1.8192,-1.8188,-1.8189,-1.8198,-1.8196,-1.8191,-1.8194,-1.8095,-1.8186,-1.8185,-1.8185,-1.8185,-1.8184,-1.7848,-1.7875,-1.7901,-1.7935,-1.7955,-1.798,-1.8007,-1.8022,-1.8053,-1.8091,-1.8094,-1.8135,-1.8162,-1.8209,-1.8227,-1.826,-1.825,-1.8263,-1.8267,-1.827,-1.8272,-1.8187,-1.8266,-1.8266,-1.8266,-1.8266,-1.8266,0,-1.792,-1.7936,-1.7968,-1.8004,-1.8032,-1.8026,-1.8054,-1.8078,-1.8114,-1.8139,-1.8169,-1.8213,-1.8249,-1.8269,-1.8305,-1.8328,-1.8327,-1.8337,-1.8335,-1.8339,-1.8279,-1.8267,-1.8337,-1.8337,-1.8337,-1.8337,-1.8337,-1.8337,-1.796,-1.8006,-1.8014,-1.807,-1.8087,-1.8127,-1.8143,-1.8166,-1.8186,-1.8236,-1.8266,-1.8279,-1.8302,-1.8341,-1.8374,-1.8379,-1.8392,-1.8403,-1.8407,-1.8351,-1.8343,-1.8336,-1.8325,-1.8406,-1.8407,-1.8465,-1.8465,-1.8466]},{"header":{"parameterUnit":"m.s-1","parameterCategory":1,"la1":30.2991,"la2":30.254,"lo1":-89.0895,"lo2":-89.0444,"dy":0.0017,"dx":0.0017,"nx":28,"ny":28,"refTime":"2025-12-13T03:00:00:Z","depth":0,"parameterNumber":3,"parameterNumberName":"V-component_of_WINDS"},"data":[0,0,0,0,0,0,0,0,0,0,0,0,0,0,0,0,0,0,0,0,0,0,0,0,0,0,0,0,0,0,0,0,0,0,0,0,0,0,0,0,0,0,0,0,0,0,0,0,0,0,0,0,0,0,0,0,0,0,1.1696,1.1697,0,1.1726,1.1726,1.1727,1.1757,1.1758,1.1758,1.1758,1.1788,1.1788,1.1788,0,0,0,0,0,0,0,0,0,0,0,0,0,1.1665,1.1666,1.1696,1.1697,1.1697,1.1726,1.1726,1.1727,1.1757,1.1758,1.1758,1.1759,1.1787,1.1788,1.1788,0,0,0,0,0,0,0,0,0,0,0,0,0,1.1685,1.1666,1.1696,1.1716,1.1718,1.1726,1.1726,1.1727,1.1757,1.1758,1.1758,1.1759,1.1787,1.1788,1.1788,1.1779,0,0,1.179,1.179,0,0,0,0,0,0,0,0,1.1684,1.1686,1.1712,1.1714,1.1717,1.1739,1.1726,1.1744,1.1757,1.1742,1.1758,1.1759,1.1771,1.1773,1.1777,1.1781,1.1782,1.179,1.1791,1.1791,1.1791,0,0,0,0,0,0,0,1.1683,1.1685,1.1708,1.1713,1.1715,1.1723,1.1726,1.173,1.1752,1.1743,1.1746,1.1749,1.1772,1.1776,1.1778,1.1782,1.179,1.1791,1.1791,1.1791,1.1781,1.1781,0,0,0,0,0,0,1.1678,1.1684,1.1707,1.1709,1.1702,1.1723,1.1727,1.1731,1.1752,1.1756,1.1748,1.175,1.1775,1.1777,1.1779,1.177,1.1791,1.1791,1.1792,1.1782,1.1781,1.1781,0,0,0,0,0,0,1.1678,1.168,1.1706,1.1697,1.1701,1.1723,1.1727,1.1731,1.1735,1.1756,1.176,1.1749,1.1775,1.1778,1.1779,1.1772,1.1792,1.1792,1.1783,1.1782,1.1781,1.1753,0,0,0,0,0,0,1.1677,1.168,1.1677,1.1697,1.1701,1.1706,1.1727,1.1731,1.1737,1.1739,1.1757,1.1761,1.1776,1.1778,1.178,1.1773,1.1793,1.1783,1.1782,1.1781,1.1754,1.1751,1.1748,0,0,0,0,0,1.1675,1.1667,1.1676,1.1679,1.1698,1.1705,1.1708,1.1726,1.1736,1.1733,1.1746,1.1761,1.1772,1.1778,1.178,1.1773,1.1784,1.1783,1.1781,1.1756,1.1751,1.1748,0,0,0,0,0,0,1.1644,1.167,1.168,1.1678,1.169,1.1711,1.1707,1.1721,1.1729,1.1731,1.1753,1.1756,1.1755,1.1764,1.177,1.1766,1.178,1.1779,1.176,1.1756,1.1753,1.1751,1.1793,0,0,0,0,0,1.1638,1.1642,1.1664,1.166,1.1665,1.1685,1.1689,1.1702,1.1714,1.1719,1.1733,1.1744,1.175,1.1754,1.1761,1.1756,1.176,1.1752,1.1749,1.1746,1.1745,1.1744,1.174,1.1776,1.1776,1.1776,0,0,1.1623,1.1637,1.1639,1.1654,1.1664,1.1668,1.1689,1.1692,1.1695,1.1719,1.1722,1.1732,1.1746,1.1744,1.1744,1.1752,1.1736,1.1744,1.1742,1.1742,1.1742,1.1739,1.1735,1.1775,1.1775,1.1775,0,0,1.1599,1.161,1.1608,1.1618,1.1634,1.1647,1.1647,1.1666,1.1674,1.1677,1.1696,1.17,1.171,1.1719,1.1725,1.1705,1.1719,1.1707,1.169,1.1689,1.1686,1.1683,1.1677,1.1674,1.1706,1.1706,1.1706,0,1.1579,1.1586,1.1605,1.1608,1.1614,1.1637,1.1636,1.1644,1.1661,1.1665,1.1673,1.1687,1.1698,1.1699,1.1695,1.1699,1.1699,1.1705,1.1685,1.1683,1.1681,1.1674,1.1672,1.1704,1.1704,1.1705,1.1705,0,1.156,1.1565,1.1562,1.1578,1.1584,1.1584,1.1604,1.1608,1.162,1.1633,1.1636,1.165,1.166,1.1662,1.1674,1.1665,1.1669,1.1681,1.1695,1.1675,1.167,1.1668,1.1702,1.1703,1.1703,1.1703,0,0,1.1517,1.1545,1.1543,1.1551,1.1571,1.1574,1.1576,1.1587,1.159,1.1601,1.1603,1.1611,1.1622,1.1629,1.1643,1.1641,1.1625,1.1653,1.1654,1.1648,1.1617,1.1608,1.1605,1.1635,1.1634,1.1634,1.1616,0,1.1496,1.15,1.1519,1.1518,1.1523,1.1545,1.1546,1.1558,1.157,1.1576,1.1589,1.1595,1.1609,1.1614,1.1614,1.1627,1.1619,1.1629,1.1636,1.1636,1.1632,1.1602,1.1592,1.1575,1.1614,1.1613,1.1613,0,1.1472,1.1482,1.1482,1.1502,1.1504,1.1505,1.1517,1.1522,1.1536,1.1545,1.1553,1.1569,1.1572,1.1585,1.159,1.1596,1.16,1.1607,1.1607,1.1609,1.1623,1.1602,1.1569,1.1567,1.161,1.161,1.161,0,1.1441,1.1454,1.1456,1.1462,1.1485,1.1485,1.1495,1.151,1.1516,1.1526,1.153,1.154,1.1545,1.1553,1.1571,1.1579,1.1573,1.1588,1.158,1.158,1.1578,1.1578,1.1545,1.1581,1.1581,1.1581,1.1581,0,1.1415,1.1414,1.1442,1.1443,1.1443,1.1464,1.1463,1.1475,1.1488,1.1492,1.1512,1.1514,1.1538,1.1543,1.1557,1.1559,1.1561,1.1568,1.1572,1.1567,1.1566,1.1569,1.1571,1.158,1.158,1.158,1.158,0,1.138,1.1399,1.1402,1.1424,1.143,1.1429,1.1447,1.1449,1.1463,1.1467,1.147,1.1491,1.1499,1.1517,1.1529,1.1539,1.1537,1.1544,1.1532,1.1535,1.1526,1.1526,1.1494,1.1491,1.1529,1.1528,1.1528,0,1.1363,1.1363,1.1385,1.1389,1.1398,1.1404,1.1411,1.1432,1.1437,1.1454,1.1454,1.1463,1.1472,1.1483,1.1499,1.1509,1.1516,1.1504,1.1518,1.1512,1.1516,1.1516,1.1516,1.1501,1.1501,1.15,1.15,0,1.133,1.134,1.1348,1.1359,1.1366,1.1376,1.1388,1.139,1.1414,1.1419,1.1427,1.1434,1.1447,1.1456,1.1469,1.1479,1.1493,1.1496,1.1494,1.1489,1.1482,1.1486,1.1524,1.1496,1.1497,1.1497,1.1497,1.1497,1.1303,1.1305,1.1321,1.1329,1.134,1.135,1.1353,1.1368,1.1375,1.1388,1.14,1.1408,1.1422,1.1441,1.1449,1.1455,1.1463,1.1461,1.146,1.146,1.1457,1.1482,1.1458,1.1458,1.1458,1.1458,1.1458,0,1.1272,1.1284,1.1292,1.1307,1.1314,1.1328,1.1341,1.1346,1.1352,1.1365,1.1373,1.1383,1.1392,1.141,1.1421,1.1422,1.1429,1.1424,1.1424,1.1426,1.145,1.145,1.1418,1.1418,1.1418,1.1418,1.1418,1.1418,1.1256,1.1259,1.1271,1.1279,1.1291,1.1299,1.1305,1.1315,1.1325,1.1336,1.1344,1.1355,1.137,1.1382,1.1391,1.1396,1.1399,1.1392,1.1399,1.1421,1.1424,1.1428,1.1428,1.1392,1.1392,1.1375,1.1375,1.1374]}]]